Minneapolis, MN

5:55 AM CDT on June 26, 2017 (GMT -0500)
Minneapolis-Saint Paul International

Weather History for KMSP - March, 2014

Change the Weather History Date:

Tuesday, March 18, 2014

  Actual Average Record
Temperature  
Mean Temperature 33 °F 34 °F  
Max Temperature 37 °F 42 °F 79 °F (2012)
Min Temperature 28 °F 25 °F -8 °F (1923)
Degree Days  
Heating Degree Days 32 31  
Month to date heating degree days 763 633  
Since 1 July heating degree days 7216 6423  
Cooling Degree Days 0 0  
Month to date cooling degree days 0 0  
Year to date cooling degree days 0 0  
Moisture  
Dew Point 26 °F    
Average Humidity 81    
Maximum Humidity 100    
Minimum Humidity 61    
Precipitation  
Precipitation 0.15 in 0.07 in 1.07 in (1968)
Month to date precipitation 0.23 1.00  
Year to date precipitation 3.06 2.67  
Snow  
Snow 2.30 in 0.30 in 5.30 in (2005)
Month to date snowfall 2.8 7.1  
Since 1 July snowfall 60.9 48.8  
Snow Depth 4.00 in    
Sea Level Pressure  
Sea Level Pressure 29.75 in    
Wind  
Wind Speed 12 mph (NE)    
Max Wind Speed 18 mph    
Max Gust Speed 27 mph    
Visibility 5 miles    
Events Fog , Snow    
T = Trace of Precipitation, MM = Missing Value Source: NWS Daily Summary

Daily Weather History Graph

Daily Weather History Graph

Search for Another Location

Airport or City:

Trip Planner

Search our weather history database for the weather conditions in past years. The results will help you decide how hot, cold, wet, or windy it might be!

Date:

Astronomy

Mar. 18, 2014 Rise Set
Actual Time 7:19 AM CDT 7:22 PM CDT
Civil Twilight 6:50 AM CDT 7:52 PM CDT
Nautical Twilight 6:16 AM CDT 8:26 PM CDT
Astronomical Twilight 5:41 AM CDT 9:01 PM CDT
Moon 9:47 PM CDT (3/18) 8:03 AM CDT (3/18)
Length of Visible Light 13h 01m
Length of Day
12h 03m
Waning Gibbous, 96% of the Moon is Illuminated
Mar 18
Waning Gibbous
Mar 23
Last Quarter
Mar 30
New
Apr 7
First Quarter
Apr 15
Full

Hourly Weather History & Observations

Time (CDT) Temp. Windchill Dew Point Humidity Pressure Visibility Wind Dir Wind Speed Gust Speed Precip Events Conditions
12:53 AM 30.9 °F 22.8 °F 21.9 °F 69% 29.68 in 10.0 mi ENE 9.2 mph - N/A   Mostly Cloudy
1:53 AM 32.0 °F 22.5 °F 21.9 °F 66% 29.67 in 10.0 mi East 12.7 mph - N/A   Mostly Cloudy
2:53 AM 30.9 °F 22.8 °F 21.9 °F 69% 29.67 in 10.0 mi East 9.2 mph - N/A   Mostly Cloudy
3:53 AM 30.9 °F 21.7 °F 21.0 °F 67% 29.66 in 10.0 mi East 11.5 mph - N/A   Mostly Cloudy
4:53 AM 30.9 °F 22.2 °F 21.0 °F 67% 29.65 in 10.0 mi East 10.4 mph - N/A   Overcast
5:53 AM 30.9 °F 24.3 °F 21.0 °F 67% 29.68 in 10.0 mi ENE 6.9 mph - N/A   Overcast
6:53 AM 30.0 °F 23.2 °F 21.0 °F 69% 29.72 in 10.0 mi NE 6.9 mph - N/A   Overcast
7:53 AM 30.0 °F 20.5 °F 21.9 °F 72% 29.73 in 3.0 mi ENE 11.5 mph - 0.00 in Snow Light Snow
8:53 AM 30.9 °F 21.7 °F 21.9 °F 69% 29.73 in 10.0 mi ENE 11.5 mph - 0.00 in   Mostly Cloudy
9:53 AM 33.1 °F 23.9 °F 21.9 °F 64% 29.75 in 10.0 mi ENE 12.7 mph - N/A   Overcast
10:53 AM 33.1 °F 23.9 °F 23.0 °F 66% 29.74 in 10.0 mi ENE 12.7 mph - N/A   Overcast
11:53 AM 35.1 °F 26.4 °F 24.1 °F 64% 29.75 in 10.0 mi ENE 12.7 mph - N/A   Overcast
12:53 PM 35.1 °F 27.4 °F 24.1 °F 64% 29.75 in 9.0 mi East 10.4 mph - N/A   Overcast
1:53 PM 36.0 °F 27.5 °F 24.1 °F 62% 29.75 in 8.0 mi ENE 12.7 mph - N/A   Overcast
2:53 PM 36.0 °F 28.5 °F 25.0 °F 64% 29.73 in 8.0 mi NE 10.4 mph - N/A   Overcast
3:53 PM 36.0 °F 27.5 °F 24.1 °F 62% 29.75 in 7.0 mi ENE 12.7 mph - N/A   Overcast
4:53 PM 36.0 °F 26.3 °F 25.0 °F 64% 29.74 in 7.0 mi NE 16.1 mph 26.5 mph N/A   Overcast
5:53 PM 34.0 °F 24.6 °F 28.0 °F 79% 29.77 in 5.0 mi North 13.8 mph 21.9 mph N/A   Haze
6:41 PM 33.1 °F 23.4 °F 28.0 °F 82% 29.76 in 2.0 mi NNE 13.8 mph 21.9 mph 0.00 in Snow Light Snow
6:53 PM 32.0 °F 21.6 °F 28.9 °F 88% 29.80 in 1.2 mi North 15.0 mph 26.5 mph 0.00 in Snow Light Snow
6:59 PM 32.0 °F 22.5 °F 28.9 °F 88% 29.77 in 0.8 mi North 12.7 mph 23.0 mph 0.00 in Snow Light Snow
7:10 PM 32.0 °F 22.5 °F 30.0 °F 92% 29.77 in 0.5 mi North 12.7 mph - 0.00 in Fog , Snow Snow
7:19 PM 30.9 °F 21.2 °F 30.0 °F 96% 29.77 in 0.8 mi North 12.7 mph 18.4 mph 0.00 in Snow Light Snow
7:35 PM 30.9 °F 21.2 °F 30.0 °F 96% 29.78 in 1.0 mi North 12.7 mph - 0.01 in Snow Light Snow
7:53 PM 30.9 °F 20.7 °F 30.0 °F 96% 29.81 in 1.2 mi NNE 13.8 mph - 0.02 in Snow Light Snow
8:53 PM 30.0 °F 21.1 °F 30.0 °F 100% 29.82 in 1.0 mi North 10.4 mph - 0.02 in Snow Light Snow
9:42 PM 30.0 °F 21.7 °F 30.0 °F 100% 29.80 in 0.8 mi North 9.2 mph - 0.03 in Snow Light Snow
9:53 PM 30.0 °F 22.4 °F 30.0 °F 100% 29.83 in 0.8 mi North 8.1 mph - 0.05 in Snow Light Snow
10:28 PM 30.0 °F 21.1 °F 30.0 °F 100% 29.80 in 1.0 mi North 10.4 mph - 0.03 in Snow Light Snow
10:53 PM 28.9 °F 19.8 °F 28.9 °F 100% 29.82 in 1.0 mi North 10.4 mph - 0.04 in Snow Light Snow
11:04 PM 28.9 °F 19.8 °F 28.9 °F 100% 29.79 in 1.5 mi North 10.4 mph - 0.00 in Snow Light Snow
11:11 PM 28.9 °F 20.4 °F 28.9 °F 100% 29.79 in 1.5 mi North 9.2 mph - 0.01 in Snow Light Snow
11:33 PM 28.9 °F 19.8 °F 28.9 °F 100% 29.79 in 2.0 mi North 10.4 mph - 0.01 in Snow Light Snow
11:53 PM 28.9 °F 17.7 °F 28.0 °F 96% 29.82 in 1.8 mi North 15.0 mph - 0.02 in Snow Light Snow